Lid_Strength_Index
3 3 3 3 3 4 11 16 17 13 14 16 19 19 18 15 17 17 18 19 19 21 21 22 21 21 20 19 20 22 22 26 28 26 32 33 35 33 34 31 36 45 41 31
2 3 3 3 3 6 14 17 17 13 14 19 19 18 17 17 17 18 18 18 18 19 20 22 20 20 19 19 20 22 22 24 27 26 29 28 30 34 38 39 38 41 36 29
2 3 3 3 3 5 15 16 16 15 18 19 20 20 18 18 17 17 17 18 18 19 20 19 21 20 20 19 19 17 18 23 24 25 24 25 29 30 34 33 35 37 34 31
1 2 3 3 3 6 12 16 18 19 18 18 20 20 19 18 18 18 18 18 18 19 22 20 20 18 20 19 18 19 21 27 25 23 23 24 25 26 32 33 32 29 31 33
3 2 4 4 4 8 14 15 16 18 19 20 20 19 19 18 17 18 18 19 18 19 21 19 21 19 18 19 20 21 22 28 25 26 22 23 25 24 26 29 34 31 29 28
4 3 3 4 5 9 13 14 15 17 16 19 21 20 19 17 18 16 16 18 18 18 17 17 17 17 18 19 19 20 23 25 27 27 23 24 26 25 24 28 30 27 30 26
5 4 3 5 5 9 12 13 13 15 18 18 17 16 17 17 17 18 16 17 18 17 18 18 19 19 19 19 19 18 23 23 25 28 26 28 21 22 21 24 25 27 26 25
5 5 3 5 6 8 12 12 12 14 17 17 16 17 17 17 18 19 17 17 18 18 18 23 24 22 22 22 21 21 20 23 23 27 31 24 21 23 23 24 21 22 24 23
4 5 4 4 6 8 11 12 11 13 17 17 16 18 18 21 22 20 18 18 18 18 19 21 26 24 23 25 24 20 20 21 22 26 27 27 21 22 22 22 23 21 22 22
4 4 4 4 5 7 10 12 11 12 18 16 17 15 15 18 18 18 18 19 19 18 22 23 25 25 22 25 27 27 25 25 24 24 25 25 19 22 21 23 20 20 21 21
5 4 3 4 5 7 9 11 12 13 15 15 15 15 16 14 16 17 16 18 21 23 27 25 24 26 25 26 26 27 25 25 26 23 26 28 21 22 22 18 20 20 20 20
6 6 5 4 4 5 8 12 11 11 14 13 13 14 14 14 14 14 16 17 20 17 23 25 24 21 23 25 21 22 23 19 21 21 22 17 19 19 19 20 19 18 21 20
6 6 6 6 5 4 5 10 12 13 14 14 16 15 16 14 15 14 18 17 15 17 16 17 18 20 19 21 22 24 21 21 19 22 18 16 15 16 18 18 19 19 20 21
6 5 5 5 5 5 5 9 11 10 11 15 17 15 16 15 15 14 13 15 15 14 14 15 16 19 16 19 19 21 18 21 23 22 20 16 15 16 17 18 18 18 19 21
6 5 5 5 5 5 7 9 10 9 10 14 15 16 16 15 14 13 12 14 18 20 20 24 21 21 19 21 23 20 20 18 18 19 14 15 15 15 17 17 17 17 20 19
6 6 5 5 6 6 8 12 12 10 10 14 18 15 16 13 13 13 13 14 17 20 20 20 21 22 20 23 26 21 23 15 15 16 16 15 14 16 16 17 17 17 18 20
5 5 5 5 5 8 11 12 11 9 9 13 18 16 13 13 12 13 12 14 14 15 16 19 20 20 15 20 20 15 14 13 14 14 15 16 15 15 17 17 17 16 19 21
6 5 6 6 5 7 11 10 8 9 12 12 19 17 14 12 13 13 12 13 13 14 15 18 20 17 19 18 15 15 14 14 14 14 14 14 15 15 15 14 15 17 18 18
5 6 7 9 11 13 13 8 9 10 12 18 17 18 15 11 12 13 14 14 20 15 19 18 15 20 19 15 15 15 14 15 14 13 13 14 15 14 14 15 15 17 17 18
6 11 13 16 13 8 9 14 16 17 17 16 17 12 14 13 13 13 15 16 17 24 19 16 20 20 14 13 12 13 12 13 14 14 14 13 13 13 13 14 14 15 16 16
12 15 15 12 9 13 17 21 22 20 23 16 16 12 13 10 15 14 13 17 17 23 19 20 22 19 14 10 9 9 11 13 13 13 13 12 12 13 13 13 13 14 15 16
10 10 10 12 15 19 22 24 19 21 17 15 14 12 13 13 12 16 16 19 18 23 17 20 25 18 13 11 10 9 10 12 12 12 12 11 12 12 12 13 13 13 14 15
14 16 19 17 20 24 25 25 21 21 16 15 14 14 11 13 15 17 17 21 23 19 24 19 18 13 12 12 9 9 10 11 11 11 10 11 11 11 12 13 12 13 16 18
17 20 23 24 26 22 21 20 19 15 16 13 16 16 13 12 15 16 21 19 19 23 28 21 17 13 10 10 10 11 10 11 11 12 12 12 12 12 12 12 15 17 20 18
17 19 24 25 19 20 20 21 20 16 17 18 16 14 13 14 17 14 16 19 22 21 19 18 12 10 10 10 11 11 12 12 12 13 13 13 13 14 14 18 20 18 18 18
17 15 18 20 20 20 22 22 19 16 18 16 15 18 20 21 19 19 20 19 20 16 13 10 9 9 8 9 10 11 12 13 14 14 14 14 14 16 19 20 19 18 18 19
16 17 17 18 21 17 15 15 14 14 16 18 19 21 20 20 21 22 17 17 14 11 10 8 8 9 9 9 10 11 12 14 14 14 15 16 17 19 19 19 19 19 20 20